{"data":{"norad_id":87771,"intl_designator":"","name":"UNKNOWN","alt_names":[],"object_type":"UNKNOWN","status":"UNKNOWN","operator":null,"country":null,"launch_date":null,"launch_site_code":null,"launch_vehicle":null,"mission":null,"orbit_class":"UNKNOWN","rcs_meters":null,"size_class":null,"mass_kg":null,"dimensions":null,"purposes":[],"wikipedia_slug":null,"has_3d_model":false,"image_url":null,"decayed_at":null,"tle_current":{"epoch":"2026-09-18T09:17:34.015200Z","epoch_age_seconds":196843,"freshness":"STALE","line1":"1 87771U          26261.38719925  .00000047  00000+0  22522-3 0  9997","line2":"2 87771 100.7238 108.4221 0120100  88.1118 273.3745 13.19586538571971","mean_motion":13.19586538,"eccentricity":0.01201,"inclination_deg":100.7238,"raan_deg":108.4221,"arg_perigee_deg":88.1118,"mean_anomaly_deg":273.3745,"bstar":0.00022522,"rev_number":57197,"period_min":109.12509021064,"perigee_km":1095.450770601,"apogee_km":1277.1485390499,"semimajor_km":7564.4366548254,"source":"CELESTRAK","updated_at":"2026-09-20T09:00:32.479624Z"}}}